Location: G�ndlingen
(48.0142°N, 7.6396°E)
Time: 19:17:19
(UTC+00:00)

Meteor 2-3 Rocket - Pass Details

Date: 05 July 2020
Orbit: 843 x 884 km, 81.2° (Epoch: 12 August)

Event Time Altitude Azimuth Distance (km) Brightness Sun altitude
Exits shadow 23:21:02 35° 179° (S) 1,342 4.2 -19.3°
Maximum altitude 23:23:29 78° 98° (E) 884 3.7 -19.3°
Drops below altitude 10° 23:29:12 10° 14° (NNE) 2,522 7.3 -19.3°
Sets 23:31:39 0° 13° (NNE) 3,470 8.4 -19.3°
